Location: Newark
(52.3500°N, 175.9667°E)
Time: 19:42:28
(UTC+00:00)

Vanguard 2 Rocket - Visible Passes

Search period start: 17 April 2021 00:00
Search period end: 27 April 2021 00:00
Orbit: 553 x 3326 km, 32.9° (Epoch: 17 April)

Date Brightness Start Highest point End Pass type
(mag) Time Alt. Az. Time Alt. Az. Time Alt. Az.
18 Apr 10.2 08:39:48 10° WSW 08:47:07 15° SW 08:53:09 10° SSW visible
19 Apr 10.1 07:35:34 10° W 07:47:24 22° SW 07:56:30 10° S visible
21 Apr 10.4 07:50:04 10° WSW 07:59:40 17° SW 08:07:36 10° SSW visible
23 Apr 10.7 08:06:33 10° WSW 08:11:46 12° SW 08:16:31 10° SW visible
